DW1521 Weather Reports


Display with metric or nautical units.
time (UTC)temp
F
wind
direction
speed
MPH
gust
MPH
rain 1hr
in
rain 24hr
in
rain mn
in
humidity
%
barometer
mb
20190119110104 42 53 0.0 2.0 0.00 0.00 0.00 68 1017.0
20190119105604 43 69 2.0 3.0 0.00 0.00 0.00 68 1017.0
20190119105104 43 69 2.0 3.0 0.00 0.00 0.00 69 1017.0
20190119104105 41 69 2.0 3.0 0.00 0.00 0.00 71 1017.0
20190119103604 40 69 0.0 0.0 0.00 0.00 0.00 72 1017.0
20190119102105 39 69 0.0 0.0 0.00 0.00 0.00 74 1017.0
20190119100604 39 69 0.0 3.0 0.00 0.00 0.00 77 1018.0
20190119100104 38 69 1.0 3.0 0.00 0.00 0.00 77 1018.0
20190119095604 39 69 0.0 0.0 0.00 0.00 0.00 78 1018.0
20190119095104 39 69 0.0 0.0 0.00 0.00 0.00 79 1018.0
20190119094105 38 69 0.0 0.0 0.00 0.00 0.00 81 1018.0
20190119093604 37 69 0.0 0.0 0.00 0.00 0.00 82 1018.0
20190119093104 37 69 0.0 0.0 0.00 0.00 0.00 83 1018.0
20190119092604 37 69 0.0 0.0 0.00 0.00 0.00 84 1018.0
20190119092104 36 69 0.0 0.0 0.00 0.00 0.00 84 1018.0
20190119091604 36 69 0.0 0.0 0.00 0.00 0.00 85 1018.0
20190119091105 36 69 0.0 0.0 0.00 0.00 0.00 85 1018.0
20190119090604 35 69 0.0 0.0 0.00 0.00 0.00 86 1018.0
20190119085105 34 69 0.0 0.0 0.00 0.00 0.00 87 1017.0
20190119084104 34 69 0.0 0.0 0.00 0.00 0.00 88 1017.0
20190119083605 33 69 0.0 0.0 0.00 0.00 0.00 89 1017.0
20190119083104 33 69 0.0 0.0 0.00 0.00 0.00 89 1017.0
20190119082604 33 69 0.0 0.0 0.00 0.00 0.00 89 1017.0
20190119082104 33 70 0.0 0.0 0.00 0.00 0.00 90 1017.0
20190119081604 33 69 0.0 0.0 0.00 0.00 0.00 90 1017.0
20190119081105 33 69 0.0 0.0 0.00 0.00 0.00 90 1017.0
20190119075104 32 69 0.0 0.0 0.00 0.00 0.00 93 1017.0
20190119073604 31 69 0.0 0.0 0.00 0.00 0.00 95 1017.0
20190119073105 30 69 0.0 0.0 0.00 0.00 0.00 95 1017.0
20190119071604 29 69 0.0 0.0 0.00 0.00 0.00 95 1017.0
20190119071104 28 69 0.0 0.0 0.00 0.00 0.00 95 1017.0
20190119070604 28 69 0.0 0.0 0.00 0.00 0.00 94 1017.0
20190119070104 28 69 0.0 0.0 0.00 0.00 0.00 94 1017.0
20190119065604 27 69 0.0 0.0 0.00 0.00 0.00 94 1017.0
20190119064604 27 69 0.0 0.0 0.00 0.00 0.00 94 1017.0
20190119063604 26 69 0.0 0.0 0.00 0.00 0.00 94 1017.0
20190119063104 26 69 0.0 0.0 0.00 0.00 0.00 93 1017.0
20190119062104 26 69 1.0 3.0 0.00 0.00 0.00 93 1016.0
20190119060604 25 69 0.0 0.0 0.00 0.00 0.00 93 1016.0
20190119060104 25 69 0.0 0.0 0.00 0.00 0.00 93 1016.0
20190119055605 25 69 0.0 0.0 0.00 0.00 0.00 93 1016.0
20190119054104 26 69 0.0 0.0 0.00 0.00 0.00 93 1016.0
20190119053105 26 69 0.0 3.0 0.00 0.00 0.00 93 1016.0
20190119051604 26 325 0.0 0.0 0.00 0.00 0.00 93 1016.0
20190119051104 26 325 0.0 0.0 0.00 0.00 0.00 93 1016.0
20190119050107 26 325 0.0 0.0 0.00 0.00 0.00 92 1016.0
20190119045603 26 325 0.0 0.0 0.00 0.00 0.00 92 1015.0
20190119045104 26 325 0.0 0.0 0.00 0.00 0.00 92 1015.0
20190119044604 26 325 0.0 0.0 0.00 0.00 0.00 92 1015.0
20190119043103 26 325 0.0 0.0 0.00 0.00 0.00 92 1015.0
20190119042604 26 325 0.0 0.0 0.00 0.00 0.00 92 1015.0
20190119042104 26 325 0.0 0.0 0.00 0.00 0.00 92 1015.0
20190119040104 26 325 0.0 0.0 0.00 0.00 0.00 91 1015.0
20190119035604 26 325 0.0 0.0 0.00 0.00 0.00 91 1015.0
20190119035104 26 325 0.0 2.0 0.00 0.00 0.00 91 1015.0
20190119034604 26 325 0.0 3.0 0.00 0.00 0.00 91 1015.0
20190119034104 26 325 0.0 0.0 0.00 0.00 0.00 91 1015.0
20190119033604 26 325 0.0 0.0 0.00 0.00 0.00 91 1015.0
20190119033104 26 325 0.0 0.0 0.00 0.00 0.00 91 1015.0
20190119031604 26 325 0.0 0.0 0.00 0.00 0.00 91 1015.0
20190119030605 26 325 0.0 0.0 0.00 0.00 0.00 90 1015.0
20190119030104 26 325 0.0 0.0 0.00 0.00 0.00 90 1015.0
20190119025604 26 325 0.0 0.0 0.00 0.00 0.00 90 1015.0
20190119025104 26 325 0.0 0.0 0.00 0.00 0.00 90 1015.0
20190119024603 26 325 0.0 0.0 0.00 0.00 0.00 90 1015.0
20190119024104 26 325 0.0 0.0 0.00 0.00 0.00 90 1015.0
20190119023604 25 325 0.0 0.0 0.00 0.00 0.00 90 1015.0
20190119022604 25 325 0.0 0.0 0.00 0.00 0.00 90 1015.0
20190119021604 25 325 0.0 0.0 0.00 0.00 0.00 90 1015.0
20190119020603 26 325 0.0 0.0 0.00 0.00 0.00 90 1015.0
20190119020104 26 325 0.0 0.0 0.00 0.00 0.00 90 1015.0
20190119015604 26 325 0.0 0.0 0.00 0.00 0.00 90 1015.0
20190119015105 26 325 0.0 0.0 0.00 0.00 0.00 90 1015.0
20190119014603 26 325 0.0 0.0 0.00 0.00 0.00 90 1015.0
20190119014104 27 325 0.0 2.0 0.00 0.00 0.00 90 1015.0
20190119013604 27 325 0.0 2.0 0.00 0.00 0.00 90 1015.0
20190119012604 27 325 0.0 0.0 0.00 0.00 0.00 90 1015.0
20190119012104 27 325 0.0 0.0 0.00 0.00 0.00 90 1015.0
20190119011604 27 325 0.0 3.0 0.00 0.00 0.00 89 1015.0
20190119011104 27 319 0.0 0.0 0.00 0.00 0.00 89 1015.0
20190119010604 27 319 0.0 0.0 0.00 0.00 0.00 89 1015.0
20190119010104 27 319 0.0 0.0 0.00 0.00 0.00 89 1015.0
20190119004603 27 319 0.0 0.0 0.00 0.00 0.00 89 1015.0
20190118230103 28 237 0.0 0.0 0.00 0.00 0.00 89 1015.0
20190118225604 28 237 0.0 0.0 0.00 0.00 0.00 89 1015.0
20190118224603 28 237 0.0 0.0 0.00 0.00 0.00 88 1015.0
20190118223604 27 237 0.0 0.0 0.00 0.00 0.00 87 1015.0
20190118222103 26 237 0.0 0.0 0.00 0.00 0.00 87 1015.0
20190118221614 26 237 0.0 0.0 0.00 0.00 0.00 87 1015.0
20190118221103 26 237 0.0 0.0 0.00 0.00 0.00 87 1015.0
20190118220104 27 237 0.0 0.0 0.00 0.00 0.00 86 1015.0
20190118215603 27 237 0.0 0.0 0.00 0.00 0.00 86 1015.0
20190118214603 27 237 1.0 5.0 0.00 0.00 0.00 86 1015.0
20190118214103 27 237 0.0 0.0 0.00 0.00 0.00 85 1016.0
20190118213604 27 237 0.0 0.0 0.00 0.00 0.00 85 1016.0
20190118212604 27 237 0.0 0.0 0.00 0.00 0.00 84 1015.0
20190118211603 27 237 0.0 0.0 0.00 0.00 0.00 84 1015.0
20190118205603 27 237 0.0 0.0 0.00 0.00 0.00 82 1015.0
20190118205104 27 237 0.0 0.0 0.00 0.00 0.00 82 1015.0
20190118204604 27 237 0.0 0.0 0.00 0.00 0.00 82 1015.0
20190118204103 28 237 0.0 0.0 0.00 0.00 0.00 82 1015.0
20190118202103 28 237 0.0 0.0 0.00 0.00 0.00 80 1015.0
20190118201604 28 237 0.0 0.0 0.00 0.00 0.00 80 1015.0
20190118201104 28 237 0.0 0.0 0.00 0.00 0.00 80 1015.0
20190118200604 28 237 0.0 0.0 0.00 0.00 0.00 80 1015.0
20190118200104 28 237 0.0 0.0 0.00 0.00 0.00 79 1015.0
20190118195603 28 237 0.0 0.0 0.00 0.00 0.00 79 1015.0
20190118193603 28 237 0.0 0.0 0.00 0.00 0.00 79 1015.0
20190118192603 29 237 0.0 0.0 0.00 0.00 0.00 78 1015.0
20190118192104 29 237 0.0 0.0 0.00 0.00 0.00 78 1015.0
20190118191604 29 237 0.0 0.0 0.00 0.00 0.00 78 1015.0
20190118190104 29 284 0.0 0.0 0.00 0.00 0.00 77 1015.0
20190118185603 29 284 0.0 0.0 0.00 0.00 0.00 77 1014.0
20190118185104 30 284 0.0 0.0 0.00 0.00 0.00 77 1014.0
20190118184604 30 284 0.0 0.0 0.00 0.00 0.00 76 1014.0
20190118184103 30 284 0.0 3.0 0.00 0.00 0.00 76 1014.0
20190118183603 30 276 0.0 3.0 0.00 0.00 0.00 76 1014.0
20190118182603 31 274 0.0 0.0 0.00 0.00 0.00 75 1014.0
20190118182104 31 274 0.0 0.0 0.00 0.00 0.00 75 1014.0
20190118181603 31 274 0.0 3.0 0.00 0.00 0.00 75 1014.0
20190118181104 31 273 0.0 0.0 0.00 0.00 0.00 75 1014.0
20190118180603 32 273 0.0 0.0 0.00 0.00 0.00 75 1014.0
20190118175104 32 273 0.0 0.0 0.00 0.00 0.00 74 1015.0
20190118174603 32 273 0.0 0.0 0.00 0.00 0.00 74 1015.0
20190118174103 32 273 0.0 0.0 0.00 0.00 0.00 73 1015.0
20190118173603 32 273 0.0 0.0 0.00 0.00 0.00 73 1015.0
20190118173103 32 273 0.0 0.0 0.00 0.00 0.00 72 1015.0
20190118172604 33 273 0.0 0.0 0.00 0.00 0.00 72 1014.0
20190118172104 33 273 0.0 0.0 0.00 0.00 0.00 70 1014.0
20190118170107 33 273 1.0 3.0 0.00 0.00 0.00 70 1014.0
20190118164108 34 282 0.0 0.0 0.00 0.00 0.00 67 1014.0
20190118163107 34 282 0.0 0.0 0.00 0.00 0.00 65 1014.0
20190118162607 34 282 0.0 0.0 0.00 0.00 0.00 64 1014.0
20190118162107 34 282 0.0 0.0 0.00 0.00 0.00 63 1014.0
20190118161107 34 282 0.0 0.0 0.00 0.00 0.00 61 1014.0
20190118160607 35 282 0.0 0.0 0.00 0.00 0.00 61 1014.0
20190118160107 35 282 0.0 0.0 0.00 0.00 0.00 60 1014.0
20190118154606 36 282 0.0 0.0 0.00 0.00 0.00 58 1014.0
20190118154107 36 282 0.0 0.0 0.00 0.00 0.00 58 1013.0
20190118152607 37 336 0.0 0.0 0.00 0.00 0.00 56 1013.0
20190118152107 37 336 0.0 0.0 0.00 0.00 0.00 55 1013.0
20190118151606 38 336 0.0 0.0 0.00 0.00 0.00 55 1013.0
20190118151107 38 336 0.0 0.0 0.00 0.00 0.00 54 1014.0
20190118145606 38 336 0.0 0.0 0.00 0.00 0.00 53 1014.0
20190118145106 39 336 0.0 0.0 0.00 0.00 0.00 53 1014.0
20190118143607 40 336 0.0 0.0 0.00 0.00 0.00 52 1014.0
20190118142606 40 336 0.0 0.0 0.00 0.00 0.00 51 1014.0
20190118142107 41 336 0.0 0.0 0.00 0.00 0.00 51 1014.0
20190118140107 42 336 0.0 0.0 0.00 0.00 0.00 51 1014.0
20190118133106 42 336 0.0 0.0 0.00 0.00 0.00 51 1013.0
20190118132607 42 336 0.0 0.0 0.00 0.00 0.00 51 1013.0
20190118131607 42 336 0.0 0.0 0.00 0.00 0.00 51 1013.0
20190118131107 42 336 0.0 0.0 0.00 0.00 0.00 51 1014.0
20190118130606 42 336 0.0 0.0 0.00 0.00 0.00 51 1014.0
20190118130106 42 336 2.0 3.0 0.00 0.00 0.00 51 1014.0
20190118125607 42 336 0.0 3.0 0.00 0.00 0.00 51 1013.0
20190118125107 42 336 0.0 0.0 0.00 0.00 0.00 51 1013.0
20190118124606 42 336 0.0 0.0 0.00 0.00 0.00 51 1013.0
20190118124106 42 336 0.0 3.0 0.00 0.00 0.00 51 1014.0
20190118123607 42 336 2.0 3.0 0.00 0.00 0.00 51 1014.0
20190118123107 43 336 2.0 3.0 0.00 0.00 0.00 51 1014.0
20190118122606 43 336 1.0 3.0 0.00 0.00 0.00 51 1013.0
20190118122106 43 336 0.0 0.0 0.00 0.00 0.00 51 1013.0
20190118121106 42 336 1.0 3.0 0.00 0.00 0.00 51 1013.0
20190118120106 42 336 0.0 0.0 0.00 0.00 0.00 51 1013.0
20190118115106 42 336 0.0 0.0 0.00 0.00 0.00 51 1013.0
20190118114107 42 336 0.0 0.0 0.00 0.00 0.00 52 1013.0
20190118112606 42 336 0.0 0.0 0.00 0.00 0.00 52 1013.0
20190118112106 41 336 0.0 0.0 0.00 0.00 0.00 52 1013.0
20190118111107 41 336 0.0 0.0 0.00 0.00 0.00 53 1014.0